,,PA_Meas_PMT16A,,PR_Meas_QMR101_102,,RH_Meas_QMH101,,SR_Meas_QMS101,,TA_Meas_QMH101,,GenWind,,GenWind,
time,status,PA,status,PR,status,RH,status,SR,status,TA,status,DirAvg,status,SpdAvg,
2016-02-15, 07:22:04,VALID,918.802,VALID,0,VALID,100.972,VALID,104.755,VALID,20.8746,INVALID,360,INVALID,0,
2016-02-15, 07:24:04,VALID,918.771,VALID,0,VALID,101.01,VALID,107.226,VALID,20.7755,VALID,166,VALID,0,
2016-02-15, 07:25:04,VALID,918.778,VALID,0,VALID,100.987,VALID,101.21,VALID,20.8356,VALID,173,VALID,0,
2016-02-15, 07:26:04,VALID,918.776,VALID,0,VALID,100.034,VALID,98.0938,VALID,20.834,VALID,141,VALID,0,
2016-02-15, 07:52:04,VALID,919.078,VALID,0,VALID,100.743,VALID,97.4491,VALID,20.717,VALID,191,VALID,1.62188,
2016-02-15, 07:53:04,VALID,919.069,VALID,0,VALID,101.102,VALID,106.152,VALID,20.7365,VALID,182,VALID,0.234375,
2016-02-15, 07:54:04,VALID,919.089,VALID,0,VALID,101.003,VALID,116.036,VALID,20.7544,VALID,182,VALID,0,
2016-02-15, 07:55:04,VALID,919.085,VALID,0,VALID,101.041,VALID,116.466,VALID,20.8129,VALID,180,VALID,0,
2016-02-15, 07:56:04,VALID,919.143,VALID,0,VALID,101.254,VALID,108.516,VALID,20.891,VALID,180,VALID,0,
2016-02-15, 07:57:04,VALID,919.139,VALID,0,VALID,101.003,VALID,100.78,VALID,20.9495,VALID,180,VALID,0,
2016-02-15, 07:58:04,VALID,919.167,VALID,0,VALID,100.751,VALID,102.499,VALID,21.047,VALID,185,VALID,0,
2016-02-15, 07:59:04,VALID,919.193,VALID,0,VALID,99.5008,VALID,102.929,VALID,21.0665,VALID,172,VALID,0,
2016-02-15, 08:00:04,VALID,919.174,VALID,0,VALID,97.6026,VALID,112.706,VALID,21.0665,VALID,177,VALID,0.735156,
2016-02-15, 08:01:04,VALID,919.208,VALID,0,VALID,98.5479,VALID,120.656,VALID,21.125,VALID,180,VALID,0.457031,
2016-02-15, 08:02:04,VALID,919.199,VALID,0,VALID,99.6152,VALID,130.541,VALID,21.1445,VALID,172,VALID,0,
2016-02-15, 08:03:04,VALID,919.226,VALID,0,VALID,99.0663,VALID,157.616,VALID,21.164,VALID,176,VALID,0,
2016-02-15, 08:04:04,VALID,919.244,VALID,0,VALID,99.8668,VALID,178.89,VALID,21.1836,VALID,156,VALID,0.41875,
2016-02-15, 08:05:04,VALID,919.252,VALID,0,VALID,99.4551,VALID,239.164,VALID,21.2226,VALID,168,VALID,1.22812,
2016-02-15, 08:06:04,VALID,919.275,VALID,0,VALID,99.699,VALID,261.942,VALID,21.3396,VALID,168,VALID,0,
2016-02-15, 08:07:04,VALID,919.249,VALID,0,VALID,98.9901,VALID,256.14,VALID,21.4762,VALID,188,VALID,0,
2016-02-15, 08:08:04,VALID,919.287,VALID,0,VALID,98.8071,VALID,269.785,VALID,21.6518,VALID,180,VALID,0,
2016-02-15, 08:09:04,VALID,919.281,VALID,0,VALID,96.3371,VALID,272.578,VALID,21.8469,VALID,180,VALID,0,
2016-02-15, 08:10:04,VALID,919.288,VALID,0,VALID,88.8509,VALID,273.867,VALID,22.0615,VALID,158,VALID,0,
2016-02-15, 08:11:04,VALID,919.285,VALID,0,VALID,84.5132,VALID,279.669,VALID,22.1591,VALID,177,VALID,0,
2016-02-15, 08:12:04,VALID,919.297,VALID,0,VALID,84.4827,VALID,270.107,VALID,22.2176,VALID,183,VALID,0,
2016-02-15, 08:13:04,VALID,919.284,VALID,0,VALID,83.8271,VALID,259.148,VALID,22.294,VALID,173,VALID,0,
2016-02-15, 08:14:04,VALID,919.266,VALID,0,VALID,83.2782,VALID,254.206,VALID,22.3559,VALID,163,VALID,0,
2016-02-15, 08:15:04,VALID,919.261,VALID,0,VALID,83.7432,VALID,258.289,VALID,22.4518,VALID,166,VALID,0,
2016-02-15, 08:16:04,VALID,919.277,VALID,0,VALID,83.0038,VALID,274.512,VALID,22.5884,VALID,174,VALID,0,
2016-02-15, 08:17:04,VALID,919.297,VALID,0,VALID,80.8692,VALID,285.686,VALID,22.7055,VALID,173,VALID,0,
2016-02-15, 08:18:04,VALID,919.278,VALID,0,VALID,80.8921,VALID,265.272,VALID,22.7055,VALID,140,VALID,0,
2016-02-15, 08:19:04,VALID,919.253,VALID,0,VALID,80.5033,VALID,273.653,VALID,22.7055,VALID,184,VALID,0.0496094,
2016-02-15, 08:20:04,VALID,919.286,VALID,0,VALID,80.671,VALID,275.909,VALID,22.5689,VALID,191,VALID,1.22734,
2016-02-15, 08:21:04,VALID,919.268,VALID,0,VALID,81.5401,VALID,273.008,VALID,22.5299,VALID,190,VALID,1.36992,
2016-02-15, 08:22:04,VALID,919.263,VALID,0,VALID,82.0966,VALID,269.892,VALID,22.5511,VALID,176,VALID,0,
2016-02-15, 08:23:04,VALID,919.261,VALID,0,VALID,82.3329,VALID,269.462,VALID,22.5103,VALID,190,VALID,0,
2016-02-15, 08:24:04,VALID,919.297,VALID,0,VALID,81.7688,VALID,296.967,VALID,22.5867,VALID,176,VALID,0,
2016-02-15, 08:25:04,VALID,919.264,VALID,0,VALID,81.9136,VALID,278.702,VALID,22.6665,VALID,168,VALID,0,
2016-02-15, 08:26:04,VALID,919.27,VALID,0,VALID,81.5324,VALID,311.364,VALID,22.6452,VALID,164,VALID,0.955859,
2016-02-15, 08:27:04,VALID,919.276,VALID,0,VALID,80.8844,VALID,305.992,VALID,22.686,VALID,158,VALID,0.221484,
2016-02-15, 08:28:04,VALID,919.249,VALID,0,VALID,81.2275,VALID,293.529,VALID,22.686,VALID,167,VALID,0.0253906,
2016-02-15, 08:29:04,VALID,919.268,VALID,0,VALID,81.3114,VALID,292.347,VALID,22.647,VALID,153,VALID,1.47617,
2016-02-15, 08:30:04,VALID,919.276,VALID,0,VALID,82.0661,VALID,267.314,VALID,22.5867,VALID,176,VALID,1.27109,
2016-02-15, 08:31:04,VALID,919.306,VALID,0,VALID,83.7966,VALID,234.866,VALID,22.6665,VALID,170,VALID,0.000390625,
2016-02-15, 08:32:04,VALID,919.291,VALID,0,VALID,81.4486,VALID,187.7,VALID,22.6665,VALID,165,VALID,0,
2016-02-15, 08:33:04,VALID,919.293,VALID,0,VALID,81.9288,VALID,153.641,VALID,22.5672,VALID,171,VALID,0,
2016-02-15, 08:34:04,VALID,919.303,VALID,0,VALID,83.08,VALID,133.549,VALID,22.5086,VALID,174,VALID,0,
2016-02-15, 08:35:04,VALID,919.29,VALID,0,VALID,83.7127,VALID,115.822,VALID,22.4891,VALID,164,VALID,0,
2016-02-15, 08:36:04,VALID,919.277,VALID,0,VALID,82.7903,VALID,111.524,VALID,22.3916,VALID,187,VALID,0.529297,
2016-02-15, 08:37:04,VALID,919.308,VALID,0,VALID,83.4764,VALID,99.2756,VALID,22.294,VALID,160,VALID,0.960938,
2016-02-15, 08:38:04,VALID,919.254,VALID,0,VALID,83.6212,VALID,97.2342,VALID,22.2354,VALID,157,VALID,0,
2016-02-15, 08:39:04,VALID,919.264,VALID,0,VALID,82.8742,VALID,91.6473,VALID,22.1574,VALID,138,VALID,0.715234,
2016-02-15, 08:40:04,VALID,919.26,VALID,0,VALID,83.6517,VALID,103.036,VALID,21.9818,VALID,163,VALID,1.76406,
2016-02-15, 08:41:04,VALID,919.275,VALID,0,VALID,85.6491,VALID,131.508,VALID,21.9444,VALID,177,VALID,0.828906,
2016-02-15, 08:42:04,VALID,919.281,VALID,0,VALID,85.5424,VALID,159.443,VALID,21.8452,VALID,162,VALID,1.52266,
2016-02-15, 08:43:04,VALID,919.295,VALID,0,VALID,89.3236,VALID,150.525,VALID,21.8062,VALID,170,VALID,0.933594,
2016-02-15, 08:44:04,VALID,919.299,VALID,0,VALID,90.0859,VALID,160.302,VALID,21.8062,VALID,184,VALID,0.835938,
2016-02-15, 08:45:04,VALID,919.29,VALID,0,VALID,91.6563,VALID,200.808,VALID,21.8452,VALID,185,VALID,0.58125,
2016-02-15, 08:46:04,VALID,919.293,VALID,0,VALID,90.7263,VALID,237.767,VALID,21.9054,VALID,163,VALID,1.16523,
2016-02-15, 08:47:04,VALID,919.247,VALID,0,VALID,89.255,VALID,303.629,VALID,21.9623,VALID,160,VALID,0.808203,
2016-02-15, 08:48:04,VALID,919.276,VALID,0,VALID,88.0123,VALID,297.505,VALID,22.0598,VALID,173,VALID,0.592188,
2016-02-15, 08:49:04,VALID,919.283,VALID,0,VALID,86.3123,VALID,347.357,VALID,22.2159,VALID,160,VALID,0.941797,
2016-02-15, 08:50:04,VALID,919.32,VALID,0,VALID,83.3239,VALID,355.845,VALID,22.3525,VALID,154,VALID,1.06836,
2016-02-15, 08:51:04,VALID,919.288,VALID,0,VALID,82.4396,VALID,363.796,VALID,22.5281,VALID,160,VALID,1.31016,
2016-02-15, 08:52:04,VALID,919.301,VALID,0,VALID,81.6239,VALID,384.532,VALID,22.6257,VALID,174,VALID,1.80117,
2016-02-15, 08:53:04,VALID,919.302,VALID,0,VALID,81.3952,VALID,366.912,VALID,22.7233,VALID,175,VALID,1.20781,
2016-02-15, 08:54:04,VALID,919.31,VALID,0,VALID,80.084,VALID,380.879,VALID,22.8794,VALID,162,VALID,1.38594,
2016-02-15, 08:55:04,VALID,919.305,VALID,0,VALID,79.4817,VALID,354.126,VALID,22.977,VALID,151,VALID,0.00195313,
2016-02-15, 08:56:04,VALID,919.282,VALID,0,VALID,78.6965,VALID,359.068,VALID,23.0746,VALID,164,VALID,0,
2016-02-15, 08:57:04,VALID,919.278,VALID,0,VALID,78.3992,VALID,323.076,VALID,23.0728,VALID,157,VALID,0,
2016-02-15, 08:58:04,VALID,919.282,VALID,0,VALID,78.9862,VALID,314.48,VALID,23.1527,VALID,141,VALID,0,
2016-02-15, 08:59:04,VALID,919.271,VALID,0,VALID,79.1311,VALID,343.274,VALID,23.2307,VALID,170,VALID,0,
2016-02-15, 09:00:04,VALID,919.277,VALID,0,VALID,77.9799,VALID,338.225,VALID,23.3265,VALID,170,VALID,0,
2016-02-15, 09:01:04,VALID,919.29,VALID,0,VALID,78.727,VALID,336.613,VALID,23.3851,VALID,135,VALID,0.728516,
2016-02-15, 09:02:04,VALID,919.31,VALID,0,VALID,78.2315,VALID,345.853,VALID,23.3674,VALID,168,VALID,0.00195313,
2016-02-15, 09:03:04,VALID,919.327,VALID,0,VALID,78.7194,VALID,323.398,VALID,23.4454,VALID,139,VALID,1.82539,
2016-02-15, 09:04:04,VALID,919.319,VALID,0,VALID,77.8808,VALID,321.894,VALID,23.4454,VALID,168,VALID,0.982031,
2016-02-15, 09:05:04,VALID,919.308,VALID,0,VALID,77.6979,VALID,315.125,VALID,23.4845,VALID,167,VALID,0.826953,
2016-02-15, 09:06:04,VALID,919.31,VALID,0,VALID,78.1324,VALID,425.682,VALID,23.504,VALID,161,VALID,0,
2016-02-15, 09:07:04,VALID,919.28,VALID,0,VALID,78.2391,VALID,444.591,VALID,23.6797,VALID,132,VALID,0,
2016-02-15, 09:08:04,VALID,919.29,VALID,0,VALID,77.5987,VALID,502.932,VALID,23.8944,VALID,142,VALID,0,
2016-02-15, 09:09:04,VALID,919.275,VALID,0,VALID,75.9368,VALID,466.724,VALID,23.9725,VALID,190,VALID,0,
2016-02-15, 09:10:04,VALID,919.269,VALID,0,VALID,76.1884,VALID,538.28,VALID,24.0506,VALID,138,VALID,0,
2016-02-15, 09:11:04,VALID,919.287,VALID,0,VALID,76.1808,VALID,476.287,VALID,24.244,VALID,170,VALID,0,
2016-02-15, 09:12:04,VALID,919.259,VALID,0,VALID,74.2063,VALID,458.774,VALID,24.4997,VALID,165,VALID,0,
2016-02-15, 09:13:04,VALID,919.246,VALID,0,VALID,73.4287,VALID,372.821,VALID,24.6754,VALID,159,VALID,0,
2016-02-15, 09:14:04,VALID,919.233,VALID,0,VALID,72.5216,VALID,430.302,VALID,24.7144,VALID,150,VALID,0,
2016-02-15, 09:15:04,VALID,919.242,VALID,0,VALID,72.1937,VALID,482.088,VALID,24.5778,VALID,135,VALID,1.09961,
2016-02-15, 09:16:04,VALID,919.253,VALID,0,VALID,72.6435,VALID,544.942,VALID,24.5582,VALID,162,VALID,0,
2016-02-15, 09:17:04,VALID,919.275,VALID,0,VALID,73.2077,VALID,549.347,VALID,24.7126,VALID,161,VALID,0,
2016-02-15, 09:18:04,VALID,919.293,VALID,0,VALID,71.1722,VALID,570.727,VALID,24.8297,VALID,151,VALID,0,
2016-02-15, 09:19:04,VALID,919.282,VALID,0,VALID,70.6386,VALID,575.562,VALID,24.8688,VALID,153,VALID,0,
2016-02-15, 09:20:04,VALID,919.302,VALID,0,VALID,71.6601,VALID,574.166,VALID,25.0055,VALID,157,VALID,0,
2016-02-15, 09:21:04,VALID,919.279,VALID,0,VALID,71.2103,VALID,574.38,VALID,25.1031,VALID,177,VALID,0,
2016-02-15, 09:22:04,VALID,919.297,VALID,0,VALID,71.3399,VALID,577.711,VALID,25.1617,VALID,128,VALID,0,
2016-02-15, 09:23:04,VALID,919.258,VALID,0,VALID,67.3529,VALID,579.43,VALID,25.0464,VALID,96,VALID,1.4,
2016-02-15, 09:24:04,VALID,919.289,VALID,0,VALID,71.1798,VALID,582.331,VALID,24.9469,VALID,135,VALID,0.239063,
2016-02-15, 09:25:04,VALID,919.319,VALID,0,VALID,70.0211,VALID,583.405,VALID,24.8883,VALID,152,VALID,0.700781,
2016-02-15, 09:26:04,VALID,919.279,VALID,0,VALID,71.1417,VALID,588.133,VALID,24.9078,VALID,72,VALID,0.2375,
2016-02-15, 09:27:04,VALID,919.336,VALID,0,VALID,71.9193,VALID,575.562,VALID,25.0817,VALID,185,VALID,0,
2016-02-15, 09:28:04,VALID,919.361,VALID,0,VALID,68.9614,VALID,595.654,VALID,25.2007,INVALID,360,INVALID,0,
2016-02-15, 09:29:04,VALID,919.319,VALID,0,VALID,68.3668,VALID,597.373,VALID,25.2203,VALID,139,VALID,1.34531,
2016-02-15, 09:30:04,VALID,919.332,VALID,0,VALID,69.739,VALID,585.554,VALID,25.1402,VALID,107,VALID,1.10508,
2016-02-15, 09:31:04,VALID,919.334,VALID,0,VALID,72.1099,VALID,584.158,VALID,25.2398,VALID,110,VALID,0.106641,
2016-02-15, 09:32:04,VALID,919.335,VALID,0,VALID,70.57,VALID,599.844,VALID,25.2379,VALID,129,VALID,0,
2016-02-15, 09:33:04,VALID,919.3,VALID,0,VALID,70.0897,VALID,600.059,VALID,25.3355,VALID,101,VALID,0.438281,
2016-02-15, 09:34:04,VALID,919.331,VALID,0,VALID,68.4964,VALID,601.778,VALID,25.357,VALID,153,VALID,0.833203,
2016-02-15, 09:35:04,VALID,919.319,VALID,0,VALID,66.4762,VALID,603.604,VALID,25.3765,VALID,88,VALID,0.666016,
2016-02-15, 09:36:04,VALID,919.322,VALID,0,VALID,66.9946,VALID,605.001,VALID,25.4156,VALID,138,VALID,0,
2016-02-15, 09:37:04,VALID,919.329,VALID,0,VALID,65.973,VALID,604.357,VALID,25.6109,VALID,166,VALID,0,
2016-02-15, 09:38:04,VALID,919.358,VALID,0,VALID,64.799,VALID,607.257,VALID,25.6109,VALID,152,VALID,1.59922,
2016-02-15, 09:39:04,VALID,919.328,VALID,0,VALID,66.1331,VALID,607.687,VALID,25.4351,VALID,143,VALID,0.667188,
2016-02-15, 09:40:04,VALID,919.338,VALID,0,VALID,66.0874,VALID,608.439,VALID,25.5132,VALID,163,VALID,1.375,
2016-02-15, 09:41:04,VALID,919.343,VALID,0,VALID,66.2094,VALID,608.547,VALID,25.5913,VALID,110,VALID,0.196484,
2016-02-15, 09:42:04,VALID,919.341,VALID,0,VALID,65.752,VALID,609.943,VALID,25.7085,VALID,129,VALID,0.962891,
2016-02-15, 09:43:04,VALID,919.325,VALID,0,VALID,63.6631,VALID,613.059,VALID,25.7456,VALID,162,VALID,1.4082,
2016-02-15, 09:44:04,VALID,919.348,VALID,0,VALID,62.9618,VALID,615.745,VALID,25.6109,VALID,142,VALID,1.91367,
2016-02-15, 09:45:04,VALID,919.369,VALID,0,VALID,64.456,VALID,616.927,VALID,25.4917,VALID,156,VALID,0.482812,
2016-02-15, 09:46:04,VALID,919.319,VALID,0,VALID,65.1878,VALID,618.109,VALID,25.7085,VALID,189,VALID,0.0910156,
2016-02-15, 09:47:04,VALID,919.281,VALID,0,VALID,62.4663,VALID,619.828,VALID,25.7847,VALID,128,VALID,1.24961,
2016-02-15, 09:48:04,VALID,919.304,VALID,0,VALID,62.1613,VALID,618.431,VALID,25.7671,VALID,199,VALID,1.29727,
2016-02-15, 09:49:04,VALID,919.269,VALID,0,VALID,63.1295,VALID,621.01,VALID,25.9019,VALID,149,VALID,1.61953,
2016-02-15, 09:50:04,VALID,919.283,VALID,0,VALID,64.3721,VALID,624.663,VALID,25.8042,VALID,141,VALID,0.150391,
2016-02-15, 09:51:04,VALID,919.236,VALID,0,VALID,65.3022,VALID,623.159,VALID,25.8257,VALID,197,VALID,0.0632813,
2016-02-15, 09:52:04,VALID,919.259,VALID,0,VALID,62.169,VALID,628.316,VALID,25.9409,VALID,95,VALID,1.01133,
2016-02-15, 09:53:04,VALID,919.267,VALID,0,VALID,62.5882,VALID,628.853,VALID,26.1167,VALID,164,VALID,0.499609,
2016-02-15, 09:54:04,VALID,919.276,VALID,0,VALID,61.7802,VALID,631.002,VALID,26.1558,VALID,153,VALID,0.00585938,
2016-02-15, 09:55:04,VALID,919.236,VALID,0,VALID,62.0394,VALID,631.109,VALID,26.2339,VALID,89,VALID,0,
2016-02-15, 09:56:04,VALID,919.228,VALID,0,VALID,62.4434,VALID,624.018,VALID,26.3706,VALID,117,VALID,0,
2016-02-15, 09:57:04,VALID,919.257,VALID,0,VALID,60.6138,VALID,639.49,VALID,26.4488,VALID,142,VALID,1.5875,
2016-02-15, 09:58:04,VALID,919.209,VALID,0,VALID,60.6443,VALID,637.556,VALID,26.4878,VALID,160,VALID,0.265625,
2016-02-15, 09:59:04,VALID,919.238,VALID,0,VALID,62.0241,VALID,641.531,VALID,26.5464,VALID,141,VALID,0.770312,
2016-02-15, 10:00:04,VALID,919.259,VALID,0,VALID,60.9492,VALID,644.217,VALID,26.5269,VALID,161,VALID,0.154297,
2016-02-15, 10:01:04,VALID,919.262,VALID,0,VALID,60.6443,VALID,643.895,VALID,26.312,VALID,143,VALID,1.66406,
2016-02-15, 10:02:04,VALID,919.269,VALID,0,VALID,61.1322,VALID,645.936,VALID,26.2534,VALID,171,VALID,1.77734,
2016-02-15, 10:03:04,VALID,919.23,VALID,0,VALID,60.7891,VALID,647.763,VALID,26.273,VALID,169,VALID,0.448438,
2016-02-15, 10:04:04,VALID,919.216,VALID,0,VALID,61.0407,VALID,649.159,VALID,26.4292,VALID,185,VALID,0,
2016-02-15, 10:05:04,VALID,919.229,VALID,0,VALID,61.8259,VALID,652.275,VALID,26.6441,VALID,164,VALID,0,
2016-02-15, 10:06:04,VALID,919.206,VALID,0,VALID,60.2097,VALID,653.887,VALID,26.7027,VALID,124,VALID,0.827734,
2016-02-15, 10:07:04,VALID,919.195,VALID,0,VALID,61.6429,VALID,655.606,VALID,26.8395,VALID,140,VALID,0,
2016-02-15, 10:08:04,VALID,919.232,VALID,0,VALID,61.4371,VALID,658.507,VALID,27.1695,VALID,42,VALID,0,
2016-02-15, 10:09:04,VALID,919.219,VALID,0,VALID,60.164,VALID,658.937,VALID,27.4256,VALID,81,VALID,0.935938,
2016-02-15, 10:10:04,VALID,919.258,VALID,0,VALID,58.2658,VALID,659.689,VALID,27.5017,VALID,177,VALID,0.344922,
2016-02-15, 10:11:04,VALID,919.218,VALID,0,VALID,56.7868,VALID,663.127,VALID,27.5428,VALID,221,VALID,0.00585938,
2016-02-15, 10:12:04,VALID,919.234,VALID,0,VALID,59.0357,VALID,669.466,VALID,27.5624,VALID,116,VALID,0.206641,
2016-02-15, 10:13:04,VALID,919.251,VALID,0,VALID,58.868,VALID,671.937,VALID,27.4647,VALID,148,VALID,0.00117188,
2016-02-15, 10:14:04,VALID,919.232,VALID,0,VALID,57.2747,VALID,674.73,VALID,27.3104,VALID,145,VALID,0.0195313,
2016-02-15, 10:15:04,VALID,919.242,VALID,0,VALID,57.9456,VALID,677.094,VALID,27.3495,VALID,150,VALID,0,
2016-02-15, 10:16:04,VALID,919.251,VALID,0,VALID,58.746,VALID,677.954,VALID,27.4061,VALID,129,VALID,0.470313,
2016-02-15, 10:17:04,VALID,919.281,VALID,0,VALID,57.0232,VALID,678.169,VALID,27.33,VALID,162,VALID,0,
2016-02-15, 10:18:04,VALID,919.267,VALID,0,VALID,57.0765,VALID,679.888,VALID,27.4061,VALID,161,VALID,0.536328,
2016-02-15, 10:19:04,VALID,919.277,VALID,0,VALID,56.6725,VALID,683.433,VALID,27.2693,VALID,186,VALID,0.415234,
2016-02-15, 10:20:04,VALID,919.206,VALID,0,VALID,56.4438,VALID,686.119,VALID,27.1911,VALID,80,VALID,1.42656,
2016-02-15, 10:21:04,VALID,919.248,VALID,0,VALID,60.9111,VALID,683.648,VALID,27.0739,VALID,93,VALID,0,
2016-02-15, 10:22:04,VALID,919.261,VALID,0,VALID,58.5707,VALID,686.334,VALID,27.0739,VALID,177,VALID,0.588281,
2016-02-15, 10:23:04,VALID,919.236,VALID,0,VALID,59.699,VALID,689.88,VALID,26.9762,VALID,163,VALID,0.822656,
2016-02-15, 10:24:04,VALID,919.233,VALID,0,VALID,59.5236,VALID,692.888,VALID,27.0935,VALID,199,VALID,0,
2016-02-15, 10:25:04,VALID,919.217,VALID,0,VALID,59.8972,VALID,695.574,VALID,27.3084,VALID,179,VALID,0,
2016-02-15, 10:26:04,VALID,919.242,VALID,0,VALID,57.2214,VALID,694.607,VALID,27.3865,VALID,228,VALID,0.00078125,
2016-02-15, 10:27:04,VALID,919.251,VALID,0,VALID,57.4653,VALID,698.153,VALID,27.5819,VALID,177,VALID,0,
2016-02-15, 10:28:04,VALID,919.279,VALID,0,VALID,55.407,VALID,702.665,VALID,27.8164,VALID,195,VALID,0,
2016-02-15, 10:29:04,VALID,919.253,VALID,0,VALID,51.2217,VALID,705.351,VALID,27.836,VALID,163,VALID,0.00195313,
2016-02-15, 10:30:04,VALID,919.231,VALID,0,VALID,54.294,VALID,710.079,VALID,27.7752,VALID,108,VALID,0.925391,
2016-02-15, 10:31:04,VALID,919.202,VALID,0,VALID,53.6612,VALID,710.508,VALID,27.7187,VALID,95,VALID,1.2457,
2016-02-15, 10:32:04,VALID,919.196,VALID,0,VALID,55.4299,VALID,710.831,VALID,27.5428,VALID,72,VALID,1.52539,
2016-02-15, 10:33:04,VALID,919.219,VALID,0,VALID,56.0397,VALID,715.128,VALID,27.3475,VALID,99,VALID,1.2625,
2016-02-15, 10:34:04,VALID,919.231,VALID,0,VALID,55.5595,VALID,718.244,VALID,27.2302,VALID,132,VALID,1.32891,
2016-02-15, 10:35:04,VALID,919.229,VALID,0,VALID,56.7716,VALID,722.971,VALID,27.2281,VALID,129,VALID,1.80469,
2016-02-15, 10:36:04,VALID,919.268,VALID,0,VALID,53.4706,VALID,726.41,VALID,27.2086,VALID,128,VALID,1.97266,
2016-02-15, 10:37:04,VALID,919.203,VALID,0,VALID,52.7235,VALID,728.021,VALID,27.1695,VALID,177,VALID,2.09922,
2016-02-15, 10:38:04,VALID,919.235,VALID,0,VALID,52.9751,VALID,730.815,VALID,27.2086,VALID,134,VALID,1.44453,
2016-02-15, 10:39:04,VALID,919.205,VALID,0,VALID,52.5253,VALID,730.707,VALID,27.15,VALID,179,VALID,0.810938,
2016-02-15, 10:40:04,VALID,919.154,VALID,0,VALID,54.7361,VALID,733.393,VALID,27.3475,VALID,170,VALID,1.77891,
2016-02-15, 10:41:04,VALID,919.188,VALID,0,VALID,52.2509,VALID,731.567,VALID,27.4647,VALID,214,VALID,0.857813,
2016-02-15, 10:42:04,VALID,919.169,VALID,0,VALID,49.0948,VALID,737.476,VALID,27.658,VALID,190,VALID,0.373828,
2016-02-15, 10:43:04,VALID,919.15,VALID,0,VALID,50.5585,VALID,738.765,VALID,27.7948,VALID,183,VALID,0.230859,
2016-02-15, 10:44:04,VALID,919.195,VALID,0,VALID,52.533,VALID,744.46,VALID,27.9706,VALID,183,VALID,0,
2016-02-15, 10:45:04,VALID,919.139,VALID,0,VALID,50.7033,VALID,746.501,VALID,28.2051,VALID,181,VALID,0,
2016-02-15, 10:46:04,VALID,919.191,VALID,0,VALID,51.1379,VALID,747.038,VALID,28.4201,VALID,199,VALID,0,
2016-02-15, 10:47:04,VALID,919.167,VALID,0,VALID,49.941,VALID,751.658,VALID,28.5374,VALID,189,VALID,0.639453,
2016-02-15, 10:48:04,VALID,919.164,VALID,0,VALID,47.1432,VALID,751.014,VALID,28.6351,VALID,169,VALID,1.2543,
2016-02-15, 10:49:04,VALID,919.164,VALID,0,VALID,47.8141,VALID,746.931,VALID,28.6351,VALID,169,VALID,1.40781,
2016-02-15, 10:50:04,VALID,919.129,VALID,0,VALID,49.4379,VALID,679.673,VALID,28.5374,VALID,198,VALID,1.78242,
2016-02-15, 10:51:04,VALID,919.141,VALID,0,VALID,50.5432,VALID,708.359,VALID,28.5374,VALID,164,VALID,0.248437,
2016-02-15, 10:52:04,VALID,919.12,VALID,0,VALID,49.6589,VALID,670.325,VALID,28.5178,VALID,188,VALID,1.17539,
2016-02-15, 10:53:04,VALID,919.133,VALID,0,VALID,54.0729,VALID,691.814,VALID,28.4766,VALID,184,VALID,2.10547,
2016-02-15, 10:54:04,VALID,919.137,VALID,0,VALID,52.1594,VALID,487.353,VALID,28.4788,VALID,213,VALID,1.35859,
2016-02-15, 10:55:04,VALID,919.131,VALID,0,VALID,50.7033,VALID,232.718,VALID,28.4397,VALID,187,VALID,1.62539,
2016-02-15, 10:56:04,VALID,919.137,VALID,0,VALID,51.6029,VALID,118.83,VALID,28.3224,VALID,180,VALID,0.533984,
2016-02-15, 10:57:04,VALID,919.101,VALID,0,VALID,52.289,VALID,199.841,VALID,28.4788,VALID,88,VALID,0,
2016-02-15, 10:58:04,VALID,919.097,VALID,0,VALID,48.6145,VALID,96.697,VALID,28.7719,VALID,197,VALID,0.630469,
2016-02-15, 10:59:04,VALID,919.087,VALID,0,VALID,48.767,VALID,100.78,VALID,28.8697,VALID,283,VALID,0.0230469,
2016-02-15, 11:00:04,VALID,919.06,VALID,0,VALID,48.3172,VALID,105.292,VALID,28.7524,VALID,214,VALID,0.302344,
2016-02-15, 11:01:04,VALID,919.031,VALID,0,VALID,50.4365,VALID,113.458,VALID,28.6938,VALID,186,VALID,0.492969,
2016-02-15, 11:02:04,VALID,919.022,VALID,0,VALID,47.8751,VALID,122.913,VALID,28.6742,VALID,192,VALID,2.09687,
2016-02-15, 11:03:04,VALID,919.016,VALID,0,VALID,49.5979,VALID,136.128,VALID,28.6742,VALID,189,VALID,1.72734,
2016-02-15, 11:04:04,VALID,918.984,VALID,0,VALID,51.0998,VALID,152.137,VALID,28.7328,VALID,191,VALID,1.20625,
2016-02-15, 11:05:04,VALID,918.981,VALID,0,VALID,49.3006,VALID,171.369,VALID,28.7328,VALID,205,VALID,1.21133,
2016-02-15, 11:06:04,VALID,918.978,VALID,0,VALID,50.711,VALID,207.684,VALID,28.8501,VALID,194,VALID,0.132422,
2016-02-15, 11:07:04,VALID,918.989,VALID,0,VALID,48.2029,VALID,326.729,VALID,28.9869,VALID,180,VALID,1.28242,
2016-02-15, 11:08:04,VALID,918.975,VALID,0,VALID,48.9881,VALID,495.948,VALID,28.9674,VALID,189,VALID,1.13242,
2016-02-15, 11:09:04,VALID,918.975,VALID,0,VALID,51.4047,VALID,413.863,VALID,28.9088,VALID,127,VALID,0.449219,
2016-02-15, 11:10:04,VALID,918.985,VALID,0,VALID,51.1836,VALID,706.103,VALID,28.8501,VALID,164,VALID,1.26992,
2016-02-15, 11:11:04,VALID,919.031,VALID,0,VALID,49.697,VALID,352.622,VALID,28.7719,VALID,183,VALID,1.49961,
2016-02-15, 11:12:04,VALID,918.998,VALID,0,VALID,50.2231,VALID,435.352,VALID,28.4766,VALID,163,VALID,0.0417969,
2016-02-15, 11:13:04,VALID,919.02,VALID,0,VALID,50.6805,VALID,420.847,VALID,28.3007,VALID,157,VALID,0.275781,
2016-02-15, 11:14:04,VALID,918.986,VALID,0,VALID,50.589,VALID,432.988,VALID,28.1053,VALID,198,VALID,0,
2016-02-15, 11:15:04,VALID,918.967,VALID,0,VALID,51.0007,VALID,446.096,VALID,28.1248,VALID,198,VALID,0,
2016-02-15, 11:16:04,VALID,919.008,VALID,0,VALID,52.4262,VALID,424.607,VALID,28.1835,VALID,192,VALID,0,
2016-02-15, 11:17:04,VALID,919.009,VALID,0,VALID,54.1567,VALID,465.22,VALID,28.2638,VALID,180,VALID,0.015625,
2016-02-15, 11:18:04,VALID,918.992,VALID,0,VALID,52.5101,VALID,409.781,VALID,28.1465,VALID,213,VALID,1.3168,
2016-02-15, 11:19:04,VALID,918.953,VALID,0,VALID,52.7083,VALID,364.978,VALID,28.0293,VALID,229,VALID,0.297656,
2016-02-15, 11:20:04,VALID,918.961,VALID,0,VALID,53.9052,VALID,359.068,VALID,28.0271,VALID,233,VALID,0.00390625,
2016-02-15, 11:21:04,VALID,918.949,VALID,0,VALID,56.1846,VALID,370.887,VALID,28.1074,VALID,217,VALID,0,
2016-02-15, 11:22:04,VALID,918.934,VALID,0,VALID,54.233,VALID,402.904,VALID,28.2051,VALID,120,VALID,0.0417969,
2016-02-15, 11:23:04,VALID,918.917,VALID,0,VALID,54.3854,VALID,440.401,VALID,28.1856,VALID,143,VALID,0,
2016-02-15, 11:24:04,VALID,918.848,VALID,0,VALID,52.3119,VALID,420.847,VALID,28.1661,VALID,124,VALID,0,
2016-02-15, 11:25:04,VALID,918.869,VALID,0,VALID,53.1428,VALID,423.318,VALID,28.0662,VALID,102,VALID,0,
2016-02-15, 11:26:04,VALID,918.846,VALID,0,VALID,53.5545,VALID,441.798,VALID,27.8904,VALID,102,VALID,0.000390625,